{"data":{"norad_id":60012,"epoch":"2026-05-25T05:51:20.959776Z","epoch_age_seconds":47294,"freshness":"FRESH","line1":"1 60012U 24110A   26145.24399259  .00005861  00000+0  33582-3 0  9991","line2":"2 60012  97.5682 237.0917 0007895 345.0103  15.0892 15.12964727108448","mean_motion":15.12964727,"eccentricity":0.0007895,"inclination_deg":97.5682,"raan_deg":237.0917,"arg_perigee_deg":345.0103,"mean_anomaly_deg":15.0892,"bstar":0.00033582,"rev_number":10844,"period_min":95.177367608254,"perigee_km":521.71266490705,"apogee_km":532.61613581822,"semimajor_km":6905.3014003626,"source":"CELESTRAK","updated_at":"2026-05-25T13:38:01.784293Z"}}